Left ArrowRight Arrow

39.71368, -82.59933

Hourly Observations for June 21, 2024

Temp ( °F °C ) Dew Point ( °F °C ) Humidity (%) Winds ( mph kmh ) Pressure ( in mb ) Visibility ( mi km ) Precip ( " mm )
12:53 am 00:53 Clear 72 22.2 70 21.1 93 93 Calm 30.23 1024 10 16 0.00 0.00
1:53 am 01:53 Mostly Clear 72 22.2 69 20.6 91 91 Calm 30.23 1024 10 16 0.00 0.00
2:53 am 02:53 Mostly Clear 72 22.2 69 20.6 91 91 Calm 30.22 1023 10 16 0.00 0.00
3:53 am 03:53 Clear 70 21.1 69 20.6 97 97 Calm 30.20 1023 10 16 0.00 0.00
4:53 am 04:53 Clear 69 20.6 68 20 96 96 Calm 30.21 1023 9 14 0.00 0.00
5:53 am 05:53 Clear 71 21.7 69 20.6 93 93 Calm 30.21 1023 10 16 0.00 0.00
6:53 am 06:53 Sunny 71 21.7 69 20.6 93 93 Calm 30.22 1023 9 14 0.00 0.00
7:53 am 07:53 Mostly Cloudy 76 24.4 70 21.1 82 82 SW 3 6 30.23 1024 10 16 0.00 0.00
8:53 am 08:53 Mostly Sunny 81 27.2 72 22.2 74 74 SW 3 6 30.23 1024 10 16 0.00 0.00
9:53 am 09:53 Sunny 84 28.9 70 21.1 63 63 Calm 30.22 1023 10 16 0.00 0.00
10:53 am 10:53 Sunny 87 30.6 72 22.2 61 61 W 6 9 30.22 1023 10 16 0.00 0.00
11:53 am 11:53 Partly Cloudy 87 30.6 72 22.2 61 61 W 3 6 30.21 1023 10 16 0.00 0.00
12:53 pm 12:53 Mostly Cloudy 88 31.1 73 22.8 61 61 Calm 30.20 1023 10 16 0.00 0.00
1:53 pm 13:53 Sunny 92 33.3 71 21.7 51 51 NE 5 7 30.18 1022 10 16 0.00 0.00
2:53 pm 14:53 Mostly Sunny 92 33.3 69 20.6 47 47 undefined N/A 30.15 1021 10 16 0.00 0.00
3:53 pm 15:53 Mostly Cloudy 93 33.9 71 21.7 49 49 S 7 11 30.13 1020 10 16 0.00 0.00
4:53 pm 16:53 Mostly Cloudy 91 32.8 73 22.8 56 56 ENE 3 6 30.12 1020 10 16 0.00 0.00
5:53 pm 17:53 Mostly Cloudy 89 31.7 70 21.1 54 54 S 7 11 30.10 1019 10 16 0.00 0.00
6:53 pm 18:53 Partly Cloudy 88 31.1 71 21.7 57 57 S 7 11 30.09 1019 10 16 0.00 0.00
7:53 pm 19:53 Sunny 87 30.6 72 22.2 61 61 S 6 9 30.09 1019 10 16 0.00 0.00
8:53 pm 20:53 Sunny 83 28.3 72 22.2 70 70 S 5 7 30.09 1019 10 16 0.00 0.00
9:53 pm 21:53 Mostly Cloudy 78 25.6 73 22.8 85 85 Calm 30.10 1019 10 16 0.00 0.00
10:53 pm 22:53 Clear 75 23.9 73 22.8 94 94 Calm 30.11 1020 10 16 0.00 0.00
11:53 pm 23:53 Mostly Cloudy 76 24.4 72 22.2 88 88 Calm 30.10 1019 10 16 0.00 0.00

Powered by Vaisala Xweather